Weather History for Sioux City, IA

Change the Weather History Date:

Sunday, March 9, 2014

  Actual Average Record
Temperature  
Mean Temperature 47 °F 33 °F  
Max Temperature 72 °F 44 °F 72 °F (2014)
Min Temperature 21 °F 23 °F -3 °F (1996)
Degree Days  
Heating Degree Days 18 32  
Month to date heating degree days 402 300  
Since 1 July heating degree days 6006 5594  
Cooling Degree Days 0 0  
Month to date cooling degree days 0 0  
Year to date cooling degree days 0 0  
Moisture  
Dew Point 27 °F    
Average Humidity 53    
Maximum Humidity 84    
Minimum Humidity 22    
Precipitation  
Precipitation 0.00 in 0.05 in 0.71 in (2013)
Month to date precipitation 0.17 0.41  
Year to date precipitation 0.94 1.70  
Snow  
Snow 0.00 in 0.20 in 5.90 in (1970)
Month to date snowfall 4.5 2.2  
Since 1 July snowfall 18.3 28.7  
Snow Depth 0.00 in    
Sea Level Pressure  
Sea Level Pressure 29.92 in    
Wind  
Wind Speed 11 mph (South)    
Max Wind Speed 24 mph    
Max Gust Speed 33 mph    
Visibility 10 miles    
Events      
T = Trace of Precipitation, MM = Missing Value Source: NWS Daily Summary

Daily Weather History Graph

Daily Weather History Graph

Search for Another Location

Airport:

Trip Planner

Search our weather history database for the weather conditions in past years. The results will help you decide how hot, cold, wet, or windy it might be!

Date:

Astronomy

Mar. 09, 2014 Rise Set
Actual Time 7:47 AM CDT 7:25 PM CDT
Civil Twilight 7:19 AM CDT 7:53 PM CDT
Nautical Twilight 6:47 AM CDT 8:25 PM CDT
Astronomical Twilight 6:14 AM CDT 8:58 PM CDT
Moon 1:13 PM CDT (3/9) 3:19 AM CDT (3/9)
Length of Visible Light 12h 33m
Length of Day
11h 37m
First Quarter, 61% of the Moon is Illuminated
Mar 9
First Quarter
Mar 16
Full
Mar 23
Last Quarter
Mar 30
New
Apr 7
First Quarter

Hourly Weather History & Observations

Time (CDT) Temp. Windchill Dew Point Humidity Pressure Visibility Wind Dir Wind Speed Gust Speed Precip Events Conditions
12:52 AM 21.9 °F 12.5 °F 18.0 °F 85% 30.24 in 10.0 mi ESE 8.1 mph - N/A   Clear
1:52 AM 23.0 °F 13.9 °F 18.0 °F 81% 30.21 in 10.0 mi SE 8.1 mph - N/A   Clear
3:52 AM 25.0 °F 15.5 °F 19.0 °F 78% 30.16 in 10.0 mi SE 9.2 mph - N/A   Clear
4:52 AM 27.0 °F 16.7 °F 19.0 °F 72% 30.14 in 10.0 mi ESE 11.5 mph - N/A   Clear
5:52 AM 25.0 °F 14.8 °F 18.0 °F 75% 30.11 in 10.0 mi ESE 10.4 mph - N/A   Clear
6:52 AM 25.0 °F 17.1 °F 18.0 °F 75% 30.07 in 10.0 mi SSE 6.9 mph - N/A   Clear
7:52 AM 26.1 °F 18.4 °F 19.0 °F 75% 30.05 in 10.0 mi SSE 6.9 mph - N/A   Clear
8:52 AM 37.0 °F 28.5 °F 26.1 °F 65% 30.01 in 10.0 mi SSW 13.8 mph - N/A   Clear
9:52 AM 43.0 °F 36.0 °F 28.0 °F 56% 29.98 in 10.0 mi South 13.8 mph - N/A   Clear
10:52 AM 51.1 °F - 30.0 °F 44% 29.95 in 10.0 mi SW 17.3 mph - N/A   Clear
11:52 AM 57.0 °F - 32.0 °F 39% 29.92 in 10.0 mi SW 17.3 mph - N/A   Clear
12:52 PM 64.0 °F - 32.0 °F 30% 29.88 in 10.0 mi SW 18.4 mph 27.6 mph N/A   Clear
1:52 PM 68.0 °F - 32.0 °F 26% 29.85 in 10.0 mi WSW 21.9 mph 28.8 mph N/A   Clear
2:52 PM 69.1 °F - 30.9 °F 24% 29.81 in 10.0 mi West 21.9 mph 26.5 mph N/A   Clear
3:52 PM 71.1 °F - 30.0 °F 22% 29.80 in 10.0 mi WSW 18.4 mph 25.3 mph N/A   Clear
4:52 PM 69.1 °F - 30.0 °F 23% 29.79 in 10.0 mi West 15.0 mph - N/A   Clear
5:52 PM 70.0 °F - 30.0 °F 23% 29.78 in 10.0 mi West 8.1 mph - N/A   Clear
6:52 PM 62.1 °F - 30.9 °F 31% 29.78 in 10.0 mi WSW 6.9 mph - N/A   Clear
7:52 PM 55.0 °F - 30.0 °F 38% 29.79 in 10.0 mi WSW 3.5 mph - N/A   Clear
8:52 PM 52.0 °F - 32.0 °F 47% 29.79 in 10.0 mi Calm Calm - N/A   Clear
9:52 PM 48.9 °F - 30.9 °F 50% 29.78 in 10.0 mi SE 3.5 mph - N/A   Clear
10:52 PM 46.9 °F - 30.9 °F 54% 29.78 in 10.0 mi East 5.8 mph - N/A   Clear
11:52 PM 46.9 °F - 30.9 °F 54% 29.76 in 10.0 mi SE 3.5 mph - N/A   Partly Cloudy
12:52 AM 45.0 °F 41.2 °F 30.9 °F 58% 29.75 in 10.0 mi East 6.9 mph - N/A   Clear